Погода в Фодже

Италия     41°27′59″N   15°32′30″E
темп.,
°C
ветер,
м/с
пор.,
м/с
влажн.,
%
обл.,
%
осадки,
мм/ч
давл.,
гПа
погр.,
м
9 мая, вс
вс923:00+12зсз47905 0.0 1021122
02:00+11зсз34875 0.0 102159
05:00+11зсз33840 0.0 102031
08:00+16сз22590 0.0 1020257
11:00+23вюв01400 0.0 1020851
14:00+27вюв34270 0.0 10191870
17:00+24вюв66295 0.0 1018589
20:00+16юв355633 0.0 101971
10 мая, пн
пн1023:00+13юв227199 0.0 101925
02:00+13юв1174100 0.0 101812
05:00+12ююв117536 0.0 101811
08:00+18вюв225869 0.0 1018195
11:00+25вюв33390 0.0 1017941
14:00+29в44300 0.0 10161746
17:00+26вюв54370 0.0 1015751
20:00+18вюв35700 0.0 101586
11 мая, вт
вт1123:00+15ююв228218 0.0 101614
02:00+15ююв1177100 0.0 101511
05:00+14ююв117249 0.0 101411
08:00+19юв34530 0.0 1013234
11:00+27юв34310 0.0 10111200
14:00+30ююз36240 0.0 10092117
17:00+28зюз56273 0.0 10091882
20:00+20юз344797 0.0 100850
12 мая, ср
ср1223:00+17ююз475310 0.0 1008110
02:00+14ююз33830 0.2 100848
05:00+13ю33860 0.3 100837
08:00+17юз812600 0.3 1008953
11:00+21зюз99390 0.0 10081733
14:00+22зюз910390 0.0 10081832
17:00+20юз912453 0.0 10081593
20:00+16юз7125763 0.0 1008515
13 мая, чт
чт1323:00+15зюз613600 0.0 1009581
02:00+15зюз714590 0.0 1008678
05:00+15з714580 0.0 1008617
08:00+18зюз71250100 0.0 10081118
11:00+22зюз8103828 0.0 10081981
14:00+23зюз10113218 0.0 10082388
17:00+21зюз1113371 0.0 10081799
20:00+17зюз916490 0.0 1008656